TimeCST,TemperatureF,Dew PointF,Humidity,Sea Level PressureIn,VisibilityMPH,Wind Direction,Wind SpeedMPH,Gust SpeedMPH,PrecipitationIn,Events,Conditions,WindDirDegrees,DateUTC
12:15 AM,42.8,42.8,100,29.99,4.0,SSE,11.5,-,N/A,,Overcast,150,2013-01-27 06:15:00
12:35 AM,42.8,42.8,100,30.00,4.0,SSE,13.8,-,N/A,,Overcast,160,2013-01-27 06:35:00
12:55 AM,42.8,42.8,100,29.98,4.0,SSE,12.7,-,N/A,,Overcast,160,2013-01-27 06:55:00
1:15 AM,42.8,42.8,100,29.99,4.0,SSE,8.1,-,N/A,,Overcast,160,2013-01-27 07:15:00
1:35 AM,42.8,42.8,100,30.00,4.0,South,9.2,-,N/A,,Overcast,190,2013-01-27 07:35:00
1:55 AM,42.8,42.8,100,29.99,4.0,South,8.1,-,N/A,,Overcast,190,2013-01-27 07:55:00
2:15 AM,42.8,42.8,100,29.98,4.0,SSE,10.4,-,N/A,,Overcast,160,2013-01-27 08:15:00
2:35 AM,42.8,42.8,100,29.97,2.0,SSE,12.7,-,N/A,,Overcast,160,2013-01-27 08:35:00
2:55 AM,42.8,42.8,100,29.96,1.0,South,15.0,-,N/A,,Overcast,170,2013-01-27 08:55:00
3:15 AM,44.6,42.8,93,29.94,0.8,SSE,18.4,-,N/A,,Overcast,160,2013-01-27 09:15:00
3:35 AM,44.6,44.6,100,29.94,0.5,South,16.1,-,N/A,,Light Drizzle,170,2013-01-27 09:35:00
3:55 AM,44.6,44.6,100,29.93,0.5,South,13.8,-,N/A,Rain,Light Rain,170,2013-01-27 09:55:00
4:15 AM,44.6,44.6,100,29.92,0.5,South,15.0,-,N/A,Fog,Fog,170,2013-01-27 10:15:00
4:35 AM,44.6,44.6,100,29.92,0.5,South,16.1,-,N/A,Fog,Fog,170,2013-01-27 10:35:00
4:55 AM,46.4,46.4,100,29.91,0.8,South,20.7,-,N/A,,Overcast,170,2013-01-27 10:55:00
6:17 AM,48.2,48.2,100,29.89,2.0,South,17.3,23.0,N/A,,Overcast,170,2013-01-27 12:17:00
6:55 AM,50.0,50.0,100,29.89,5.0,South,17.3,23.0,N/A,,Overcast,170,2013-01-27 12:55:00
7:55 AM,50.0,50.0,100,29.89,5.0,South,23.0,27.6,N/A,,Overcast,180,2013-01-27 13:55:00
8:55 AM,51.8,50.0,94,29.89,3.0,South,23.0,29.9,N/A,,Overcast,190,2013-01-27 14:55:00
9:55 AM,51.8,51.8,100,29.87,3.0,South,23.0,32.2,N/A,,Overcast,190,2013-01-27 15:55:00
10:50 AM,55.4,53.6,94,29.87,5.0,South,23.0,32.2,N/A,,Overcast,190,2013-01-27 16:50:00
11:50 AM,59.0,55.4,88,29.84,7.0,South,26.5,36.8,N/A,,Mostly Cloudy,190,2013-01-27 17:50:00
12:50 PM,64.4,55.4,73,29.80,10.0,SSW,28.8,36.8,N/A,,Mostly Cloudy,200,2013-01-27 18:50:00
1:50 PM,66.2,55.4,68,29.78,10.0,South,26.5,32.2,N/A,,Mostly Cloudy,180,2013-01-27 19:50:00
3:50 PM,69.8,55.4,60,29.75,7.0,South,28.8,35.7,N/A,,Mostly Cloudy,190,2013-01-27 21:50:00
4:50 PM,68.0,55.4,64,29.75,10.0,South,27.6,34.5,N/A,,Mostly Cloudy,180,2013-01-27 22:50:00
5:50 PM,66.2,55.4,68,29.75,10.0,South,24.2,32.2,N/A,,Scattered Clouds,180,2013-01-27 23:50:00
6:50 PM,64.4,55.4,73,29.77,10.0,South,17.3,-,N/A,,Scattered Clouds,170,2013-01-28 00:50:00
8:15 PM,59.0,53.6,82,29.79,10.0,SSE,9.2,-,N/A,,Clear,160,2013-01-28 02:15:00
8:35 PM,60.8,53.6,77,29.79,10.0,SSE,8.1,-,N/A,,Clear,160,2013-01-28 02:35:00
8:50 PM,60.8,55.4,82,29.79,10.0,South,11.5,-,N/A,,Clear,170,2013-01-28 02:50:00
8:55 PM,59.0,53.6,82,29.79,10.0,South,10.4,-,N/A,,Clear,180,2013-01-28 02:55:00
9:15 PM,60.8,55.4,82,29.79,10.0,South,12.7,-,N/A,,Clear,180,2013-01-28 03:15:00
9:35 PM,60.8,55.4,82,29.79,10.0,South,15.0,20.7,N/A,,Clear,170,2013-01-28 03:35:00
9:55 PM,60.8,55.4,82,29.79,10.0,South,15.0,-,N/A,,Clear,170,2013-01-28 03:55:00
10:15 PM,60.8,55.4,82,29.80,10.0,South,16.1,-,N/A,,Clear,180,2013-01-28 04:15:00
10:35 PM,60.8,55.4,82,29.80,10.0,South,16.1,-,N/A,,Clear,180,2013-01-28 04:35:00
10:55 PM,60.8,55.4,82,29.80,10.0,South,15.0,20.7,N/A,,Clear,180,2013-01-28 04:55:00
11:15 PM,60.8,55.4,82,29.81,10.0,SSE,15.0,20.7,N/A,,Clear,150,2013-01-28 05:15:00
11:35 PM,60.8,55.4,82,29.81,10.0,South,16.1,-,N/A,,Clear,180,2013-01-28 05:35:00
11:55 PM,59.0,53.6,82,29.81,10.0,South,12.7,-,N/A,,Clear,190,2013-01-28 05:55:00